Del Norte, CO

1:51 PM MST on February 13, 2016 (GMT -0700)
Wolf Creek Pass

Weather History for KCPW - January, 2013

Change the Weather History Date:

Saturday, January 5, 2013

  Actual Average (KALS) Record (KALS)
Temperature  
Mean Temperature 22 °F 16 °F  
Max Temperature 30 °F 34 °F 57 °F (1956)
Min Temperature 14 °F -2 °F -33 °F (1971)
Degree Days  
Heating Degree Days 43 49  
Month to date heating degree days 245  
Since 1 July heating degree days 3882  
Cooling Degree Days 0 0  
Month to date cooling degree days 0  
Year to date cooling degree days 0  
Moisture  
Dew Point -9 °F    
Average Humidity 26    
Maximum Humidity 45    
Minimum Humidity 15    
Precipitation  
Precipitation 0.00 in 0.01 in 0.19 in (1974)
Month to date precipitation 0.04  
Year to date precipitation 0.04  
Snow  
Snow 0.00 in 0.10 in 3.10 in (1974)
Month to date snowfall 0.6  
Since 1 July snowfall 10.9  
Snow Depth -    
Sea Level Pressure  
Sea Level Pressure 30.25 in    
Wind  
Wind Speed 8 mph (North)    
Max Wind Speed 24 mph    
Max Gust Speed 38 mph    
Visibility 10 miles    
Events      
T = Trace of Precipitation, MM = Missing Value Source: NWS Daily Summary

Daily Weather History Graph

Daily Weather History Graph

Search for Another Location

Airport or City:

Trip Planner

Search our weather history database for the weather conditions in past years. The results will help you decide how hot, cold, wet, or windy it might be!

Date:

Astronomy

Jan. 05, 2013 Rise Set
Actual Time 7:22 AM MST 5:03 PM MST
Civil Twilight 6:53 AM MST 5:32 PM MST
Nautical Twilight 6:20 AM MST 6:05 PM MST
Astronomical Twilight 5:48 AM MST 6:36 PM MST
Moon 12:36 AM MST (1/5) 11:51 AM MST (1/5)
Length of Visible Light 10h 39m
Length of Day
9h 41m
Last Quarter, 43% of the Moon is Illuminated
Jan 5
Last Quarter
Jan 11
New
Jan 18
First Quarter
Jan 26
Full
Feb 3
Last Quarter

Hourly Weather History & Observations

Time (MST) Temp. Windchill Dew Point Humidity Pressure Visibility Wind Dir Wind Speed Gust Speed Precip Events Conditions
12:06 AM 14.0 °F 6.5 °F -4.0 °F 45% 30.09 in 10.0 mi North 4.6 mph - N/A   Clear
12:26 AM 15.8 °F 7.2 °F -7.6 °F 35% 30.09 in 10.0 mi North 5.8 mph - N/A   Clear
12:46 AM 14.0 °F 3.9 °F -7.6 °F 38% 30.09 in 10.0 mi North 6.9 mph - N/A   Clear
1:06 AM 15.8 °F 8.6 °F -7.6 °F 35% 30.10 in 10.0 mi West 4.6 mph - N/A   Scattered Clouds
1:26 AM 15.8 °F 7.2 °F -9.4 °F 32% 30.10 in 10.0 mi West 5.8 mph - N/A   Scattered Clouds
1:46 AM 15.8 °F 6.1 °F -13.0 °F 27% 30.11 in 10.0 mi North 6.9 mph 17.3 mph N/A   Clear
2:06 AM 14.0 °F 2.9 °F -11.2 °F 32% 30.11 in 10.0 mi North 8.1 mph 16.1 mph N/A   Clear
2:26 AM 14.0 °F -0.8 °F -13.0 °F 29% 30.12 in 10.0 mi North 13.8 mph 17.3 mph N/A   Clear
2:46 AM 14.0 °F 3.9 °F -13.0 °F 29% 30.13 in 10.0 mi NNW 6.9 mph - N/A   Clear
3:06 AM 14.0 °F 2.9 °F -14.8 °F 27% 30.14 in 10.0 mi North 8.1 mph - N/A   Clear
3:26 AM 15.8 °F 0.3 °F -14.8 °F 25% 30.14 in 10.0 mi North 16.1 mph 23.0 mph N/A   Clear
3:46 AM 15.8 °F -0.2 °F -14.8 °F 25% 30.13 in 10.0 mi NNE 17.3 mph 23.0 mph N/A   Clear
4:06 AM 14.0 °F -3.0 °F -13.0 °F 29% 30.13 in 10.0 mi NNE 18.4 mph 26.5 mph N/A   Clear
4:26 AM 15.8 °F -2.7 °F -11.2 °F 30% 30.12 in 10.0 mi NNE 24.2 mph 38.0 mph N/A   Clear
4:46 AM 17.6 °F 3.7 °F -13.0 °F 25% 30.13 in 10.0 mi NE 13.8 mph 26.5 mph N/A   Clear
5:06 AM 17.6 °F 5.7 °F -14.8 °F 23% 30.15 in 10.0 mi North 10.4 mph 17.3 mph N/A   Clear
5:26 AM 15.8 °F 4.2 °F -14.8 °F 25% 30.16 in 10.0 mi NE 9.2 mph 17.3 mph N/A   Clear
5:46 AM 17.6 °F 6.4 °F -14.8 °F 23% 30.17 in 10.0 mi North 9.2 mph 16.1 mph N/A   Clear
6:06 AM 17.6 °F 2.7 °F -14.8 °F 23% 30.17 in 10.0 mi NNE 16.1 mph 24.2 mph N/A   Clear
6:26 AM 17.6 °F 5.7 °F -16.6 °F 21% 30.17 in 10.0 mi NNE 10.4 mph 23.0 mph N/A   Clear
6:46 AM 17.6 °F 3.2 °F -14.8 °F 23% 30.19 in 10.0 mi NNE 15.0 mph 24.2 mph N/A   Clear
7:06 AM 17.6 °F 7.3 °F -16.6 °F 21% 30.20 in 10.0 mi North 8.1 mph 17.3 mph N/A   Clear
7:26 AM 19.4 °F 8.6 °F -14.8 °F 21% 30.20 in 10.0 mi North 9.2 mph 18.4 mph N/A   Clear
7:46 AM 17.6 °F 10.7 °F -14.8 °F 23% 30.21 in 10.0 mi North 4.6 mph - N/A   Clear
8:06 AM 19.4 °F 6.6 °F -13.0 °F 23% 30.22 in 10.0 mi NNE 12.7 mph 23.0 mph N/A   Clear
8:26 AM 19.4 °F 9.5 °F -14.8 °F 21% 30.23 in 10.0 mi North 8.1 mph - N/A   Clear
9:06 AM 21.2 °F 12.6 °F -13.0 °F 22% 30.24 in 10.0 mi NE 6.9 mph - N/A   Clear
9:26 AM 23.0 °F 14.7 °F -13.0 °F 20% 30.26 in 10.0 mi NE 6.9 mph 20.7 mph N/A   Clear
10:06 AM 26.6 °F 22.6 °F -14.8 °F 16% 30.27 in 10.0 mi NNW 3.5 mph - N/A   Clear
10:26 AM 26.6 °F - -14.8 °F 16% 30.28 in 10.0 mi Calm Calm - N/A   Clear
10:46 AM 28.4 °F 24.6 °F -14.8 °F 15% 30.28 in 10.0 mi NW 3.5 mph - N/A   Clear
11:06 AM 26.6 °F 21.2 °F -13.0 °F 17% 30.28 in 10.0 mi NNE 4.6 mph - N/A   Clear
11:26 AM 26.6 °F 18.2 °F -11.2 °F 19% 30.28 in 10.0 mi North 8.1 mph - N/A   Clear
11:46 AM 26.6 °F 15.7 °F -7.6 °F 22% 30.28 in 10.0 mi North 12.7 mph 23.0 mph N/A   Clear
12:06 PM 26.6 °F 16.8 °F -7.6 °F 22% 30.27 in 10.0 mi NE 10.4 mph 20.7 mph N/A   Clear
12:26 PM 28.4 °F - -7.6 °F 21% 30.27 in 10.0 mi Calm Calm - N/A   Clear
12:46 PM 30.2 °F 24.3 °F -5.8 °F 21% 30.27 in 10.0 mi West 5.8 mph - N/A   Clear
1:06 PM 28.4 °F 22.2 °F -7.6 °F 21% 30.26 in 10.0 mi NW 5.8 mph - N/A   Clear
1:26 PM 30.2 °F 25.4 °F -5.8 °F 21% 30.26 in 10.0 mi West 4.6 mph - N/A   Clear
1:46 PM 28.4 °F 21.2 °F 1.4 °F 31% 30.26 in 10.0 mi SW 6.9 mph - N/A   Clear
2:06 PM 28.4 °F 24.6 °F 1.4 °F 31% 30.26 in 10.0 mi South 3.5 mph - N/A   Clear
2:26 PM 28.4 °F 20.4 °F 1.4 °F 31% 30.27 in 10.0 mi SSW 8.1 mph 17.3 mph N/A   Clear
2:46 PM 28.4 °F 20.4 °F 1.4 °F 31% 30.27 in 10.0 mi SSW 8.1 mph - N/A   Clear
3:06 PM 28.4 °F 22.2 °F -0.4 °F 29% 30.27 in 10.0 mi SW 5.8 mph - N/A   Clear
3:26 PM 28.4 °F 24.6 °F -2.2 °F 27% 30.29 in 10.0 mi SW 3.5 mph - N/A   Clear
4:06 PM 26.6 °F 19.1 °F -2.2 °F 29% 30.29 in 10.0 mi South 6.9 mph - N/A   Clear
4:26 PM 26.6 °F - -4.0 °F 26% 30.30 in 10.0 mi Calm Calm - N/A   Clear
4:46 PM 26.6 °F - -4.0 °F 26% 30.31 in 10.0 mi Calm Calm - N/A   Clear
5:06 PM 24.8 °F 16.1 °F -5.8 °F 26% 30.31 in 10.0 mi North 8.1 mph - N/A   Clear
5:26 PM 23.0 °F 15.8 °F -7.6 °F 26% 30.32 in 10.0 mi NNW 5.8 mph - N/A   Clear
5:46 PM 23.0 °F 15.8 °F -7.6 °F 26% 30.32 in 10.0 mi NW 5.8 mph - N/A   Clear
6:06 PM 23.0 °F 15.8 °F -7.6 °F 26% 30.33 in 10.0 mi NNW 5.8 mph 16.1 mph N/A   Clear
6:26 PM 21.2 °F 9.5 °F -9.4 °F 26% 30.33 in 10.0 mi NNE 11.5 mph - N/A   Clear
6:46 PM 23.0 °F 11.1 °F -7.6 °F 26% 30.33 in 10.0 mi NNE 12.7 mph 23.0 mph N/A   Clear
7:06 PM 23.0 °F 13.1 °F -7.6 °F 26% 30.33 in 10.0 mi NNE 9.2 mph - N/A   Clear
7:26 PM 21.2 °F 10.1 °F -7.6 °F 28% 30.33 in 10.0 mi NNE 10.4 mph - N/A   Clear
7:46 PM 21.2 °F 9.5 °F -7.6 °F 28% 30.34 in 10.0 mi NNE 11.5 mph - N/A   Clear
8:06 PM 21.2 °F 8.3 °F -7.6 °F 28% 30.34 in 10.0 mi NNE 13.8 mph 24.2 mph N/A   Clear
8:26 PM 21.2 °F 8.9 °F -5.8 °F 30% 30.34 in 10.0 mi NNE 12.7 mph 23.0 mph N/A   Clear
8:46 PM 19.4 °F 7.2 °F -5.8 °F 33% 30.34 in 10.0 mi NE 11.5 mph - N/A   Clear
9:06 PM 21.2 °F 10.1 °F -5.8 °F 30% 30.35 in 10.0 mi NE 10.4 mph - N/A   Clear
9:26 PM 19.4 °F 9.5 °F -7.6 °F 30% 30.35 in 10.0 mi NE 8.1 mph - N/A   Clear
9:46 PM 21.2 °F 11.7 °F -5.8 °F 30% 30.36 in 10.0 mi NE 8.1 mph - N/A   Clear
10:06 PM 21.2 °F 13.6 °F -5.8 °F 30% 30.36 in 10.0 mi NE 5.8 mph - N/A   Clear
10:26 PM 19.4 °F 12.8 °F -5.8 °F 33% 30.37 in 10.0 mi NNW 4.6 mph - N/A   Clear
10:46 PM 21.2 °F - -7.6 °F 28% 30.37 in 10.0 mi Calm Calm - N/A   Clear
11:06 PM 21.2 °F - -7.6 °F 28% 30.37 in 10.0 mi Calm Calm - N/A   Clear
11:26 PM 21.2 °F - -7.6 °F 28% 30.37 in 10.0 mi Calm Calm - N/A   Clear
11:47 PM 21.2 °F - -5.8 °F 30% 30.37 in 10.0 mi Calm Calm - N/A   Clear